Погода в Кампофеличе-ди-Рочелле

Италия     37°59′26″N   13°53′04″E
темп.,
°C
ветер,
м/с
пор.,
м/с
влажн.,
%
обл.,
%
осадки,
мм/ч
давл.,
гПа
погр.,
м
14 апреля, ср
ср1423:00+7з028259 0.0 1022274
02:00+6ююв22805 0.0 102164
05:00+7ююв22745 0.0 102050
08:00+9юв126851 0.0 1020140
11:00+13ссв325113 0.0 1020701
14:00+14ссв325984 0.0 1019753
17:00+13св3365100 0.0 1018492
20:00+9в228212 0.0 1019147
15 апреля, чт
чт1523:00+9ю22856 0.0 102082
02:00+8ю448562 0.0 1019104
05:00+9ю338241 0.0 1018101
08:00+11ю237470 0.0 1018168
11:00+15ссз125491 0.0 1018833
14:00+13ссз2266100 0.1 1018753
17:00+11ююв1190100 1.5 1018130
20:00+10юв1186100 2.0 101677
16 апреля, пт
пт1623:00+10зюз1189100 1.1 101796
02:00+10вюв2393100 1.4 1014169
05:00+10ююв2288100 0.1 1012129
08:00+10ю1189100 1.6 1011139
11:00+15всв2366100 0.0 1008684
14:00+16юв155752 0.0 10071134
17:00+14ю236283 0.0 1006768
20:00+12зсз227978 0.1 1006104
17 апреля, сб
сб1723:00+11зюз118552 0.0 1007138
02:00+10зюз118831 0.0 1006119
05:00+9з119073 0.0 1006101
08:00+10ссв239191 0.1 1007351
11:00+11с228982 0.2 1008368
14:00+13с217848 0.4 1008654
17:00+12ссв328399 0.4 1008493
20:00+10ссв119399 0.6 1010209
18 апреля, вс
вс1823:00+10зсз119578 0.3 1012202
02:00+10ююз118795 0.3 1012121
05:00+9ююз228699 0.0 101297
08:00+11ююв22756 0.1 1012137
11:00+15зюз255089 0.0 10121380
14:00+16ссз1350100 0.1 10111333
17:00+13ссз1172100 1.2 1011261
20:00+10сз458799 3.1 1012229